Regional Weather Roundup
Issued by NWS

Home | Current Version | Previous Version | Graphics & Text | Print | Product List | Glossary On
Versions: 1 2 3 4 5 6 7 8 9 10 11 12 13 14 15 16 17 18 19 20 21 22 23 24 25 26 27 28 29 30 31 32 33 34 35 36 37 38 39 40 41 42 43 44 45 46 47 48 49 50
000
ASUS43 KLMK 262110
RWRKY
KENTUCKY REGIONAL WEATHER ROUNDUP
NATIONAL WEATHER SERVICE LOUISVILLE KY
400 PM EST THU FEB 26 2015

NOTE "FAIR" INDICATES FEW OR NO CLOUDS BELOW 12,000 FEET
WITH NO SIGNIFICANT WEATHER AND/OR OBSTRUCTIONS TO VISIBILITY.

KYZ001>023-026-027-061>063-070>075-262200-
WESTERN AND SOUTH CENTRAL KENTUCKY

CITY           SKY/WX    TMP DP  RH WIND       PRES   REMARKS
PADUCAH        CLOUDY    28  20  71 NW13G23   30.20R HAZE    WCI  17
HENDERSON      CLOUDY    27  19  74 NW10      30.20R WCI  17
OWENSBORO      FLURRIES  29  21  71 NW14      30.17R WCI  18
HOPKINSVILLE   CLOUDY    32  23  69 NW9       30.14R WCI  24
BOWLING GREEN  CLOUDY    37  20  50 NW10      30.10R WCI  30
GLASGOW        CLOUDY    37  21  51 N7        30.07R WCI  32
$$

KYZ024-025-028>034-038-045-046-053-262200-
NORTH CENTRAL KENTUCKY

CITY           SKY/WX    TMP DP  RH WIND       PRES   REMARKS
LOUISVILLE/SDF FLURRIES  29  18  63 N15       30.13R WCI  18
LOUISVILLE/LOU CLOUDY    27  16  63 NW12      30.13R WCI  17
FORT KNOX      MIX PCPN  30  19  64 NW13      30.09R WCI  20
$$

KYZ035>037-039>044-047>052-055>060-089>105-262200-
NORTHEAST KENTUCKY

CITY           SKY/WX    TMP DP  RH WIND       PRES   REMARKS
LEXINGTON      CLOUDY    31  17  56 NW9       30.05R WCI  23
COVINGTON      CLOUDY    23  13  65 N10       30.09R WCI  12
FRANKFORT      CLOUDY    31  15  52 NW8       30.06R WCI  23
$$

KYZ054-064>069-076>088-106>120-262200-
SOUTHEAST KENTUCKY

CITY           SKY/WX    TMP DP  RH WIND       PRES   REMARKS
JACKSON        MOSUNNY   39  15  37 VRB6      29.96R WCI  35
LONDON         MOSUNNY   38  16  40 NW10      29.99R WCI  31
SOMERSET       MOSUNNY   37  19  48 N7        30.03R WCI  32
MIDDLESBORO    PTSUNNY   37  26  64 NW3       29.99R
MONTICELLO     MOCLDY    38  23  55 W3        30.06R
$$




USA.gov is the U.S. government's official web portal to all federal, state and local government web resources and services.